Grand Junction, CO

8:18 PM MST on February 25, 2017 (GMT -0700)
Walker

Weather History for KGJT - December, 2011

Change the Weather History Date:

Sunday, December 11, 2011

  Actual Average Record
Temperature  
Mean Temperature 29 °F 29 °F  
Max Temperature 43 °F 39 °F 60 °F (1929)
Min Temperature 15 °F 19 °F -12 °F (2009)
Degree Days  
Heating Degree Days 36 36  
Month to date heating degree days 398 380  
Since 1 July heating degree days 1520 1608  
Cooling Degree Days 0 0  
Month to date cooling degree days 0 0  
Year to date cooling degree days 1222 1125  
Moisture  
Dew Point 14 °F    
Average Humidity 57    
Maximum Humidity 80    
Minimum Humidity 34    
Precipitation  
Precipitation 0.00 in 0.02 in 0.24 in (1938)
Month to date precipitation T 0.22  
Year to date precipitation 9.41 9.05  
Snow  
Snow 0.00 in 0.20 in 2.00 in (1991)
Month to date snowfall T 1.4  
Since 1 July snowfall T 3.9  
Snow Depth 0.00 in    
Sea Level Pressure  
Sea Level Pressure 30.10 in    
Wind  
Wind Speed 4 mph (East)    
Max Wind Speed 12 mph    
Max Gust Speed 14 mph    
Visibility 10 miles    
Events      
T = Trace of Precipitation, MM = Missing Value Source: NWS Daily Summary

Daily Weather History Graph

Daily Weather History Graph

Search for Another Location

Airport or City:

Trip Planner

Search our weather history database for the weather conditions in past years. The results will help you decide how hot, cold, wet, or windy it might be!

Date:

Astronomy

Dec. 11, 2011 Rise Set
Actual Time 7:23 AM MST 4:51 PM MST
Civil Twilight 6:53 AM MST 5:21 PM MST
Nautical Twilight 6:19 AM MST 5:54 PM MST
Astronomical Twilight 5:47 AM MST 6:27 PM MST
Moon 6:04 PM MST (12/11) 8:13 AM MST (12/11)
Length of Visible Light 10h 28m
Length of Day
9h 28m
Full, 99% of the Moon is Illuminated
Dec 11
Full
Dec 17
Last Quarter
Dec 24
New
Dec 31
First Quarter
Jan 9
Full

Hourly Weather History & Observations

Time (MST) Temp. Windchill Dew Point Humidity Pressure Visibility Wind Dir Wind Speed Gust Speed Precip Events Conditions
12:53 AM 21.9 °F 15.7 °F 12.0 °F 66% 30.22 in 10.0 mi East 4.6 mph - N/A   Clear
1:53 AM 19.9 °F 14.9 °F 10.9 °F 68% 30.19 in 10.0 mi East 3.5 mph - N/A   Clear
2:53 AM 21.9 °F 12.5 °F 12.0 °F 66% 30.17 in 10.0 mi ESE 8.1 mph - N/A   Clear
3:53 AM 18.0 °F - 10.0 °F 71% 30.17 in 10.0 mi Calm Calm - N/A   Clear
4:53 AM 16.0 °F 8.8 °F 10.0 °F 77% 30.19 in 10.0 mi East 4.6 mph - N/A   Clear
5:53 AM 17.1 °F 11.7 °F 10.0 °F 74% 30.19 in 10.0 mi East 3.5 mph - N/A   Clear
6:53 AM 16.0 °F 7.4 °F 10.0 °F 77% 30.20 in 10.0 mi East 5.8 mph - N/A   Clear
7:53 AM 19.4 °F 10.4 °F 12.2 °F 74% 30.10 in 10.0 mi East 6.9 mph - N/A   Clear
8:53 AM 26.1 °F 18.4 °F 14.0 °F 60% 30.19 in 10.0 mi ESE 6.9 mph - N/A   Clear
9:53 AM 30.2 °F 24.3 °F 15.8 °F 55% 30.10 in 10.0 mi SE 5.8 mph - N/A   Clear
10:53 AM 32.0 °F - 17.1 °F 54% 30.16 in 10.0 mi Calm Calm - N/A   Clear
11:53 AM 36.0 °F - 17.1 °F 46% 30.12 in 10.0 mi Calm Calm - N/A   Clear
12:53 PM 41.0 °F 39.0 °F 16.0 °F 36% 30.06 in 10.0 mi WNW 3.5 mph - N/A   Clear
1:53 PM 41.0 °F 38.0 °F 17.1 °F 38% 30.03 in 10.0 mi North 4.6 mph - N/A   Clear
2:53 PM 42.1 °F 40.2 °F 17.1 °F 37% 30.01 in 10.0 mi WNW 3.5 mph - N/A   Clear
3:53 PM 42.1 °F 39.2 °F 17.1 °F 37% 30.02 in 10.0 mi West 4.6 mph - N/A   Clear
4:53 PM 37.9 °F 35.5 °F 17.1 °F 43% 30.03 in 10.0 mi SW 3.5 mph - N/A   Clear
5:53 PM 30.0 °F - 12.9 °F 49% 30.05 in 10.0 mi Calm Calm - N/A   Clear
6:53 PM 27.0 °F 23.0 °F 12.9 °F 56% 30.07 in 10.0 mi East 3.5 mph - N/A   Clear
7:53 PM 28.0 °F 22.8 °F 14.0 °F 56% 30.07 in 10.0 mi ENE 4.6 mph - N/A   Clear
8:53 PM 28.0 °F 21.7 °F 14.0 °F 56% 30.04 in 10.0 mi East 5.8 mph - N/A   Clear
9:53 PM 26.1 °F 20.5 °F 12.9 °F 58% 30.04 in 10.0 mi East 4.6 mph - N/A   Clear
10:53 PM 30.0 °F 22.4 °F 15.1 °F 54% 30.02 in 10.0 mi ENE 8.1 mph - N/A   Clear
11:53 PM 23.0 °F - 12.9 °F 65% 30.03 in 10.0 mi Calm Calm - N/A   Clear